Granada, Spain

10:09 PM CET en Diciembre 11, 2017 (GMT +0100)
Granada

Tiempo Historia de LEGR - Diciembre, 2017

Change the Weather History Date:

Jueves, Diciembre 7, 2017

  Actual Average Record
Temperature  
Temperatura media 42 ° F -  
Temperatura máxima 61 ° F 54 ° F 68 ° F (2000)
Temperatura mínima 24 ° F 33 ° F 21 ° F (1998)
Degree Days  
Grados día de calefacción 22    
Moisture  
Punto de rocío 31 ° F    
Average Humidity 79    
Maximum Humidity 100    
Minimum Humidity 27    
Precipitación  
Precipitación 0.00 pul - - ()
Presión al nivel del mar  
Presión al nivel del mar 30.47 pul    
Viento  
Velocidad del viento 1 mph ()    
Velocidad máxima del viento 7 mph    
Max Gust Speed -    
Visibilidad 8.0 Millas    
Eventos      
Averages and records for this station are not official NWS values.
T = Trace of Precipitation, MM = Missing Value Source: Averaged Metar Reports

Daily Weather History Graph

Daily Weather History Graph

Search for Another Location

Airport or City:

Trip Planner

Search our weather history database for the weather conditions in past years. The results will help you decide how hot, cold, wet, or windy it might be!

Date:

Astronomía

Dec. 07, 2017 Salida Puesta
Hora real 8:15 AM CET 5:57 PM CET
Crepúsculo civil 7:46 AM CET 6:26 PM CET
Crepúsculo náutico 7:14 AM CET 6:58 PM CET
Crepúsculo astronómico 6:42 AM CET 7:30 PM CET
Luna 10:25 PM CET (12/7) 11:45 AM CET (12/7)
Horas de luz 10h 39m
Horas de luz
9h 42m
Gibosa menguante, 80% of the Moon is Illuminated
Dic 7
Gibosa menguante
Dic 10
Cuarto menguante
Dic 18
Nueva
Dic 26
Cuarto creciente
Ene 2
Luna llena

Hourly Weather History & Observations

Hora (CET) Temp. Vientos helados Punto de rocío Humedad Presión Visibilidad Wind Dir Velocidad del viento Velocidad de ráfagas Precip Eventos Condiciones
12:00 AM 33 ° F - 32 ° F 93% 30.57 pul 4 mi SO 2.3 mph - -   Neblina
12:00 AM 32.0 ° F - 30.2 ° F 93% 30.48 pul 3.7 mi SO 2.3 mph - N/A   Desconocido
12:30 AM 32.0 ° F - 32.0 ° F 100% 30.48 pul 3.7 mi Sur 2.3 mph - N/A   Desconocido
1:00 AM 32 ° F - 31 ° F 94% 30.58 pul 8 mi Sin viento Sin viento - -   Neblina
1:00 AM 30.2 ° F - 30.2 ° F 100% 30.48 pul 5.6 mi Sin viento Sin viento - N/A   Desconocido
1:30 AM 30.2 ° F 26.7 ° F 30.2 ° F 100% 30.48 pul 6.2 mi OSO 3.5 mph - N/A   Desconocido
2:00 AM 31 ° F - 29 ° F 92% 30.57 pul 6 mi Sin viento Sin viento - -   Despejado
2:00 AM 30.2 ° F - 28.4 ° F 93% 30.45 pul 6.2 mi Sin viento Sin viento - N/A   Desconocido
2:30 AM 30.2 ° F - 28.4 ° F 93% 30.45 pul 6.2 mi SO 2.3 mph - N/A   Desconocido
3:00 AM 29 ° F - 28 ° F 97% 30.58 pul 7 mi Sin viento Sin viento - -  
3:00 AM 28.4 ° F - 28.4 ° F 100% 30.45 pul 5.6 mi Sin viento Sin viento - N/A   Desconocido
3:30 AM 28.4 ° F - 28.4 ° F 100% 30.45 pul 6.2 mi Variable 1.2 mph - N/A   Desconocido
4:00 AM 28 ° F - 27 ° F 95% 30.58 pul 6 mi Sin viento Sin viento - -   Neblina
4:00 AM 28.4 ° F - 26.6 ° F 93% 30.45 pul 5.0 mi Sin viento Sin viento - N/A   Desconocido
4:30 AM 26.6 ° F - 26.6 ° F 100% 30.45 pul 6.2 mi Sin viento Sin viento - N/A   Desconocido
5:00 AM 27 ° F - 26 ° F 95% 30.58 pul 7 mi Sin viento Sin viento - -   Despejado
5:00 AM 26.6 ° F - 24.8 ° F 93% 30.45 pul 6.2 mi Sin viento Sin viento - N/A   Desconocido
5:30 AM 26.6 ° F - 26.6 ° F 100% 30.45 pul 5.6 mi Sin viento Sin viento - N/A   Desconocido
6:00 AM 27 ° F - 26 ° F 94% 30.58 pul 9 mi Sin viento Sin viento - -  
6:00 AM 26.6 ° F - 24.8 ° F 93% 30.45 pul - Sin viento Sin viento - N/A   Despejado
6:30 AM 26.6 ° F - 24.8 ° F 93% 30.45 pul - Sin viento Sin viento - N/A   Despejado
7:00 AM 27 ° F - 26 ° F 93% 30.57 pul 9 mi Sin viento Sin viento - -   Despejado
7:00 AM 26.6 ° F - 24.8 ° F 93% 30.45 pul - Sin viento Sin viento - N/A   Despejado
7:30 AM 24.8 ° F - 23.0 ° F 93% 30.45 pul - Variable 1.2 mph - N/A   Despejado
8:00 AM 26 ° F - 25 ° F 93% 30.58 pul 9 mi Sin viento Sin viento - -   Despejado
8:00 AM 24.8 ° F - 24.8 ° F 100% 30.45 pul - Sin viento Sin viento - N/A   Despejado
8:30 AM 24.8 ° F - 23.0 ° F 93% 30.45 pul - Sin viento Sin viento - N/A   Despejado
9:00 AM 29 ° F - 27 ° F 87% 30.58 pul 6 mi Sin viento Sin viento - -  
9:00 AM 26.6 ° F - 26.6 ° F 100% 30.45 pul - Sin viento Sin viento - N/A   Despejado
9:30 AM 30.2 ° F - 26.6 ° F 86% 30.48 pul - Sin viento Sin viento - N/A   Despejado
10:00 AM 37 ° F - 32 ° F 74% 30.56 pul 7 mi Sin viento Sin viento - -   Despejado
10:00 AM 35.6 ° F - 30.2 ° F 81% 30.48 pul - Sin viento Sin viento - N/A   Despejado
10:30 AM 33.8 ° F - 30.2 ° F 87% 30.48 pul - Sin viento Sin viento - N/A   Despejado
11:00 AM 41 ° F - 35 ° F 72% 30.55 pul 8 mi Sin viento Sin viento - -  
11:00 AM 37.4 ° F - 32.0 ° F 81% 30.48 pul - Sin viento Sin viento - N/A   Despejado
11:30 AM 41.0 ° F - 33.8 ° F 76% 30.48 pul - Sin viento Sin viento - N/A   Despejado
12:00 PM 48 ° F - 36 ° F 52% 30.51 pul 16 mi Sin viento Sin viento - -  
12:00 PM 42.8 ° F - 33.8 ° F 70% 30.48 pul - Sin viento Sin viento - N/A   Despejado
12:30 PM 46.4 ° F - 33.8 ° F 62% 30.48 pul - Sin viento Sin viento - N/A   Despejado
1:00 PM 51 ° F - 35 ° F 41% 30.47 pul 16 mi Sin viento Sin viento - -   Despejado
1:00 PM 48.2 ° F - 33.8 ° F 58% 30.45 pul - Sin viento Sin viento - N/A   Despejado
1:30 PM 50.0 ° F - 33.8 ° F 54% 30.45 pul - Sin viento Sin viento - N/A   Despejado
2:00 PM 54 ° F - 34 ° F 35% 30.43 pul 16 mi Sin viento Sin viento - -   Despejado
2:00 PM 53.6 ° F - 33.8 ° F 47% 30.42 pul - Sin viento Sin viento - N/A   Despejado
2:30 PM 53.6 ° F - 33.8 ° F 47% 30.42 pul - Sin viento Sin viento - N/A   Despejado
3:00 PM 59 ° F - 35 ° F 29% 30.39 pul 16 mi Sin viento Sin viento - -  
3:00 PM 55.4 ° F - 33.8 ° F 44% 30.39 pul - Sin viento Sin viento - N/A   Despejado
3:30 PM 59.0 ° F - 33.8 ° F 39% 30.39 pul - Sin viento Sin viento - N/A   Despejado
4:00 PM 60 ° F - 35 ° F 27% 30.37 pul 19 mi Sin viento Sin viento - -   Despejado
4:00 PM 59.0 ° F - 33.8 ° F 39% 30.39 pul - Sin viento Sin viento - N/A   Despejado
4:30 PM 57.2 ° F - 28.4 ° F 33% 30.39 pul - Variable 1.2 mph - N/A   Despejado
5:00 PM 55.4 ° F - 30.2 ° F 38% 30.39 pul - Variable 1.2 mph - N/A   Despejado
5:30 PM 57.2 ° F - 33.8 ° F 41% 30.39 pul - Sin viento Sin viento - N/A   Despejado
6:00 PM 46.4 ° F - 35.6 ° F 66% 30.39 pul - Variable 1.2 mph - N/A   Despejado
6:30 PM 42.8 ° F 40.1 ° F 35.6 ° F 76% 30.39 pul - Sur 4.6 mph - N/A   Despejado
7:00 PM 43 ° F - 36 ° F 69% 30.46 pul 6 mi Sur 5.8 mph - -   Despejado
7:00 PM 41.0 ° F 36.4 ° F 35.6 ° F 81% 30.39 pul - Sur 6.9 mph - N/A   Despejado
7:30 PM 39.2 ° F - 33.8 ° F 81% 30.42 pul - Sin viento Sin viento - N/A   Despejado
8:00 PM 40 ° F - 35 ° F 76% 30.48 pul 9 mi SE 1.2 mph - -   Neblina
8:00 PM 37.4 ° F - 33.8 ° F 87% 30.42 pul - Sin viento Sin viento - N/A   Despejado
8:30 PM 35.6 ° F - 33.8 ° F 93% 30.42 pul - Sin viento Sin viento - N/A   Despejado
9:00 PM 37.4 ° F - 33.8 ° F 87% 30.42 pul - Sin viento Sin viento - N/A   Despejado
9:30 PM 33.8 ° F - 30.2 ° F 87% 30.42 pul - Sin viento Sin viento - N/A   Despejado
10:00 PM 35 ° F - 33 ° F 87% 30.52 pul 6 mi SSO 2.3 mph - -   Despejado
10:00 PM 33.8 ° F - 30.2 ° F 87% 30.45 pul - SO 1.2 mph - N/A   Despejado
10:30 PM 32.0 ° F - 30.2 ° F 93% 30.42 pul - Sin viento Sin viento - N/A   Despejado
11:00 PM 33 ° F - 31 ° F 91% 30.54 pul 7 mi Sin viento Sin viento - -   Despejado
11:00 PM 33.8 ° F - 30.2 ° F 87% 30.45 pul - Sin viento Sin viento - N/A   Despejado
11:30 PM 32.0 ° F - 30.2 ° F 93% 30.45 pul - Sin viento Sin viento - N/A   Despejado